Flag for Indonesia Weather past 2 weeks in Makassar, South Sulawesi, Indonesia

Now
82 °F

Passing clouds.


Feels Like: 92 °F
Forecast: 72 / 88 °F
Wind: 3 mph from Southwest

Location: Ujung Pandang / Hasanuddin


UV Index: 7 (High)

Visibility: 5 mi


Pressure: 29.80 "Hg

Humidity: 89%

Dew point: 79 °F

Location of MakassarLocation

Historic Weather in Makassar

°F

Makassar temperature yesterday

Maximum temperature yesterday: 86 °F (at 2:00 PM)
Minimum temperature yesterday: 75 °F (at 12:30 AM)
Average temperature yesterday: 77 °F

Past Weeks' High & Low Weather Summary

 TemperatureHumidityPressure
High91 °F (Apr 2, 12:00 PM)100% (Apr 2, 2:00 AM)29.95 "Hg (Apr 2, 2:00 AM)
Low73 °F (Apr 6, 3:00 AM)59% (Apr 10, 2:30 PM)29.71 "Hg (Apr 2, 2:30 PM)
Average80 °F88%29.83 "Hg
* Reported Apr 1 7:00 PM — Apr 16 7:00 PM, Makassar, Weather by CustomWeather, © 2014

Note: Actual official high and low records may vary slightly from our data, if they occured in-between our weather recording intervals... More about our weather records

Advertising

Historic Weather Conditions — Data for Previous 24 hours

 ConditionsComfort  
Time TempWeatherWind HumidityBarometerVisibility
7:00 PM
Apr 16
82 °FPassing clouds.2 mph79%29.77 "Hg5 mi
6:30 PM84 °FPassing clouds.3 mph74%29.77 "Hg5 mi
6:00 PM84 °FScattered clouds.3 mph74%29.77 "Hg5 mi
5:30 PM84 °FScattered clouds.5 mph74%29.74 "Hg6 mi
5:00 PM84 °FScattered clouds.5 mph74%29.74 "Hg6 mi
4:30 PM86 °FPassing clouds.5 mph70%29.74 "Hg6 mi
4:00 PM86 °FPassing clouds.5 mph70%29.74 "Hg6 mi
3:30 PM88 °FScattered clouds.6 mph66%29.74 "Hg6 mi
3:00 PM90 °FScattered clouds.8 mph63%29.74 "Hg6 mi
2:30 PM90 °FScattered clouds.6 mph67%29.74 "Hg6 mi
2:00 PM88 °FPassing clouds.8 mph66%29.74 "Hg6 mi
1:30 PM88 °FScattered clouds.9 mph66%29.77 "HgN/A
1:00 PM88 °FPassing clouds.10 mph70%29.77 "HgN/A
12:30 PM88 °FPassing clouds.9 mph70%29.80 "HgN/A
12:00 PM88 °FPassing clouds.9 mph75%29.80 "HgN/A
11:30 AM88 °FPassing clouds.6 mph70%29.83 "HgN/A
11:00 AM88 °FPassing clouds.6 mph70%29.83 "HgN/A
10:30 AM88 °FPassing clouds.3 mph66%29.83 "HgN/A
10:00 AM88 °FPassing clouds.2 mph66%29.86 "HgN/A
9:30 AM86 °FPassing clouds.3 mph75%29.86 "HgN/A
9:00 AM84 °FPassing clouds.3 mph74%29.89 "HgN/A
7:00 AM75 °FPassing clouds.2 mph94%29.86 "HgN/A
6:30 AM73 °FPassing clouds.5 mph100%29.86 "HgN/A
6:00 AM73 °FPassing clouds.2 mph100%29.83 "HgN/A
5:00 AM73 °FClear.No wind100%29.83 "Hg10 mi
4:30 AM73 °FPassing clouds.1 mph100%29.80 "HgN/A
4:00 AM73 °FClear.3 mph100%29.80 "Hg5 mi
3:30 AM75 °FClear.2 mph94%29.80 "Hg5 mi
3:00 AM75 °FClear.3 mph94%29.83 "Hg5 mi
2:30 AM75 °FClear.2 mph94%29.83 "Hg5 mi
2:00 AM75 °FClear.2 mph100%29.83 "Hg5 mi
1:30 AM75 °FPassing clouds.3 mph100%29.86 "Hg5 mi
1:00 AM75 °FPassing clouds.2 mph100%29.86 "Hg5 mi
12:30 AM75 °FPassing clouds.No wind100%29.86 "Hg5 mi
12:00 AM75 °FPassing clouds.1 mph100%29.86 "Hg5 mi
11:30 PM
Apr 15
75 °FClear.2 mph100%29.86 "Hg5 mi
11:00 PM75 °FPassing clouds.2 mph100%29.86 "Hg5 mi
10:30 PM75 °FPassing clouds.3 mph100%29.89 "Hg5 mi
10:00 PM75 °FPassing clouds.1 mph100%29.89 "Hg5 mi
9:30 PM75 °FPassing clouds.3 mph100%29.89 "Hg5 mi
9:00 PM77 °FPassing clouds.2 mph94%29.89 "Hg5 mi
8:30 PM77 °FPassing clouds.5 mph94%29.86 "Hg5 mi
8:00 PM77 °FPassing clouds.1 mph94%29.86 "Hg5 mi
Weather by CustomWeather, © 2014

See weather overview